Time,TemperatureF,DewpointF,PressureIn,WindDirection,WindDirectionDegrees,WindSpeedMPH,WindSpeedGustMPH,Humidity,HourlyPrecipIn,Conditions,Clouds,dailyrainin,SoftwareType,DateUTC
2013-04-05 00:00:00,42.9,29.2,29.96,NNW,329,10.0,16.0,58,0.00,,FEW250,0.00,VWS V14.01,2013-04-05 05:00:00,
2013-04-05 00:02:00,42.9,28.7,29.96,North,360,8.0,14.0,57,0.00,,FEW250,0.00,VWS V14.01,2013-04-05 05:02:00,
2013-04-05 00:05:00,42.9,28.7,29.96,NW,317,9.0,14.0,57,0.00,,FEW250,0.00,VWS V14.01,2013-04-05 05:05:00,
2013-04-05 00:07:00,42.8,29.1,29.96,NNW,329,3.0,14.0,58,0.00,,FEW250,0.00,VWS V14.01,2013-04-05 05:07:00,
2013-04-05 00:10:00,42.8,28.6,29.97,NW,309,12.0,14.0,57,0.00,,FEW250,0.00,VWS V14.01,2013-04-05 05:10:00,
2013-04-05 00:12:00,42.7,29.0,29.97,North,360,10.0,16.0,58,0.00,,FEW250,0.00,VWS V14.01,2013-04-05 05:12:00,
2013-04-05 00:15:00,42.7,29.0,29.97,NW,324,4.0,16.0,58,0.00,,FEW250,0.00,VWS V14.01,2013-04-05 05:15:00,
2013-04-05 00:17:00,42.5,28.8,29.97,NNW,329,6.0,15.0,58,0.00,,FEW250,0.00,VWS V14.01,2013-04-05 05:17:00,
2013-04-05 00:20:00,42.4,28.7,29.97,North,350,12.0,15.0,58,0.00,,FEW250,0.00,VWS V14.01,2013-04-05 05:20:00,
2013-04-05 00:23:00,42.3,28.6,29.97,NW,319,9.0,13.0,58,0.00,,FEW250,0.00,VWS V14.01,2013-04-05 05:23:00,
2013-04-05 00:25:00,42.2,28.5,29.97,NNW,332,3.0,14.0,58,0.00,,FEW250,0.00,VWS V14.01,2013-04-05 05:25:00,
2013-04-05 00:28:00,42.0,28.7,29.97,North,355,4.0,12.0,59,0.00,,FEW250,0.00,VWS V14.01,2013-04-05 05:28:00,
2013-04-05 00:30:00,42.0,28.7,29.97,North,9,4.0,12.0,59,0.00,,FEW250,0.00,VWS V14.01,2013-04-05 05:30:00,
2013-04-05 00:33:00,41.8,28.5,29.98,North,360,7.0,11.0,59,0.00,,FEW250,0.00,VWS V14.01,2013-04-05 05:33:00,
2013-04-05 00:35:00,41.8,28.5,29.98,NNE,26,4.0,11.0,59,0.00,,FEW250,0.00,VWS V14.01,2013-04-05 05:35:00,
2013-04-05 00:38:00,41.7,28.4,29.98,NNW,344,3.0,14.0,59,0.00,,FEW250,0.00,VWS V14.01,2013-04-05 05:38:00,
2013-04-05 00:40:00,41.7,28.4,29.98,North,360,5.0,14.0,59,0.00,,FEW250,0.00,VWS V14.01,2013-04-05 05:40:00,
2013-04-05 00:44:00,41.4,29.0,29.98,NNW,329,9.0,19.0,61,0.00,,FEW250,0.00,VWS V14.01,2013-04-05 05:44:00,
2013-04-05 00:45:00,41.4,29.0,29.98,North,360,22.0,22.0,61,0.00,,FEW250,0.00,VWS V14.01,2013-04-05 05:45:00,
2013-04-05 00:49:00,41.0,29.4,29.99,NNE,19,16.0,22.0,63,0.00,,FEW250,0.00,VWS V14.01,2013-04-05 05:49:00,
2013-04-05 00:50:00,41.0,29.4,29.99,NNE,19,16.0,22.0,63,0.00,,FEW250,0.00,VWS V14.01,2013-04-05 05:50:00,
2013-04-05 00:54:00,40.6,30.1,29.99,North,360,13.0,24.0,66,0.00,,FEW250,0.00,VWS V14.01,2013-04-05 05:54:00,
2013-04-05 00:55:00,40.6,30.1,29.99,North,360,13.0,24.0,66,0.00,,FEW250,0.00,VWS V14.01,2013-04-05 05:55:00,
2013-04-05 00:59:00,40.0,30.7,29.99,NE,36,14.0,21.0,69,0.00,,FEW250,0.00,VWS V14.01,2013-04-05 05:59:00,
2013-04-05 01:00:00,40.0,30.7,29.99,NE,36,14.0,21.0,69,0.00,,FEW250,0.00,VWS V14.01,2013-04-05 06:00:00,
2013-04-05 01:05:00,39.5,30.2,30.00,NNW,348,17.0,24.0,69,0.00,,FEW250,0.00,VWS V14.01,2013-04-05 06:05:00,
2013-04-05 01:10:00,39.1,30.5,30.00,NNE,30,16.0,27.0,71,0.00,,FEW250,0.00,VWS V14.01,2013-04-05 06:10:00,
2013-04-05 01:15:00,38.8,30.9,30.01,NNE,26,6.0,22.0,73,0.00,,FEW250,0.00,VWS V14.01,2013-04-05 06:15:00,
2013-04-05 01:20:00,38.6,30.7,30.01,North,351,14.0,18.0,73,0.00,,FEW250,0.00,VWS V14.01,2013-04-05 06:20:00,
2013-04-05 01:21:00,38.5,31.0,30.01,NE,36,13.0,20.0,74,0.00,,FEW250,0.00,VWS V14.01,2013-04-05 06:21:00,
2013-04-05 01:25:00,38.3,30.8,30.01,NNE,16,17.0,20.0,74,0.00,,FEW250,0.00,VWS V14.01,2013-04-05 06:25:00,
2013-04-05 01:26:00,38.2,31.0,30.01,North,10,11.0,22.0,75,0.00,,FEW250,0.00,VWS V14.01,2013-04-05 06:26:00,
2013-04-05 01:30:00,38.2,31.0,30.01,NE,34,10.0,22.0,75,0.00,,FEW250,0.00,VWS V14.01,2013-04-05 06:30:00,
2013-04-05 01:31:00,38.1,30.9,30.01,North,360,4.0,19.0,75,0.00,,FEW250,0.00,VWS V14.01,2013-04-05 06:31:00,
2013-04-05 01:35:00,38.0,30.8,30.01,NE,46,12.0,19.0,75,0.00,,FEW250,0.00,VWS V14.01,2013-04-05 06:35:00,
2013-04-05 01:37:00,38.0,31.1,30.01,NNE,22,6.0,17.0,76,0.00,,FEW250,0.00,VWS V14.01,2013-04-05 06:37:00,
2013-04-05 01:40:00,37.9,31.0,30.01,North,360,8.0,17.0,76,0.00,,FEW250,0.00,VWS V14.01,2013-04-05 06:40:00,
2013-04-05 01:42:00,37.8,31.2,30.01,NNE,21,9.0,16.0,77,0.00,,FEW250,0.00,VWS V14.01,2013-04-05 06:42:00,
2013-04-05 01:45:00,37.8,31.2,30.01,NNE,28,14.0,16.0,77,0.00,,FEW250,0.00,VWS V14.01,2013-04-05 06:45:00,
2013-04-05 01:47:00,37.7,31.1,30.01,NE,35,15.0,17.0,77,0.00,,FEW250,0.00,VWS V14.01,2013-04-05 06:47:00,
2013-04-05 01:50:00,37.7,31.1,30.01,North,9,10.0,20.0,77,0.00,,FEW250,0.00,VWS V14.01,2013-04-05 06:50:00,
2013-04-05 01:52:00,37.6,31.1,30.01,NE,36,11.0,15.0,77,0.00,,FEW250,0.00,VWS V14.01,2013-04-05 06:52:00,
2013-04-05 01:55:00,37.5,31.0,30.01,North,360,9.0,15.0,77,0.00,,FEW250,0.00,VWS V14.01,2013-04-05 06:55:00,
2013-04-05 01:57:00,37.5,31.3,30.02,ENE,59,7.0,17.0,78,0.00,,FEW250,0.00,VWS V14.01,2013-04-05 06:57:00,
2013-04-05 02:00:00,37.4,31.2,30.02,NE,36,3.0,16.0,78,0.00,,FEW250,0.00,VWS V14.01,2013-04-05 07:00:00,
2013-04-05 02:02:00,37.3,31.1,30.02,North,360,7.0,14.0,78,0.00,,FEW250,0.00,VWS V14.01,2013-04-05 07:02:00,
2013-04-05 02:05:00,37.3,31.1,30.02,NNE,28,2.0,14.0,78,0.00,,FEW250,0.00,VWS V14.01,2013-04-05 07:05:00,
2013-04-05 02:07:00,37.2,31.0,30.02,NNW,336,7.0,14.0,78,0.00,,FEW250,0.00,VWS V14.01,2013-04-05 07:07:00,
2013-04-05 02:10:00,37.2,31.0,30.02,NE,47,12.0,15.0,78,0.00,,FEW250,0.00,VWS V14.01,2013-04-05 07:10:00,
2013-04-05 02:13:00,37.1,31.2,30.02,North,9,12.0,15.0,79,0.00,,FEW250,0.00,VWS V14.01,2013-04-05 07:13:00,
2013-04-05 02:15:00,37.1,31.2,30.02,NNE,13,3.0,15.0,79,0.00,,FEW250,0.00,VWS V14.01,2013-04-05 07:15:00,
2013-04-05 02:18:00,37.0,31.1,30.02,NNE,18,14.0,14.0,79,0.00,,FEW250,0.00,VWS V14.01,2013-04-05 07:18:00,
2013-04-05 02:20:00,37.0,31.1,30.02,NNE,28,9.0,14.0,79,0.00,,FEW250,0.00,VWS V14.01,2013-04-05 07:20:00,
2013-04-05 02:23:00,36.9,31.0,30.02,NNW,339,6.0,15.0,79,0.00,,FEW250,0.00,VWS V14.01,2013-04-05 07:23:00,
2013-04-05 02:25:00,36.9,31.0,30.02,North,5,7.0,14.0,79,0.00,,FEW250,0.00,VWS V14.01,2013-04-05 07:25:00,
2013-04-05 02:29:00,36.8,31.2,30.02,NNE,28,4.0,17.0,80,0.00,,FEW250,0.00,VWS V14.01,2013-04-05 07:29:00,
2013-04-05 02:30:00,36.8,31.2,30.02,NE,43,6.0,17.0,80,0.00,,FEW250,0.00,VWS V14.01,2013-04-05 07:30:00,
2013-04-05 02:34:00,36.7,31.4,30.02,North,5,11.0,13.0,81,0.00,,FEW250,0.00,VWS V14.01,2013-04-05 07:34:00,
2013-04-05 02:35:00,36.7,31.4,30.02,North,5,11.0,13.0,81,0.00,,FEW250,0.00,VWS V14.01,2013-04-05 07:35:00,
2013-04-05 02:39:00,36.7,31.4,30.02,NNE,24,10.0,14.0,81,0.00,,FEW250,0.00,VWS V14.01,2013-04-05 07:39:00,
2013-04-05 02:40:00,36.7,31.4,30.02,NNE,24,10.0,14.0,81,0.00,,FEW250,0.00,VWS V14.01,2013-04-05 07:40:00,
2013-04-05 02:44:00,36.6,31.3,30.03,North,355,7.0,9.0,81,0.00,,FEW250,0.00,VWS V14.01,2013-04-05 07:44:00,
2013-04-05 02:45:00,36.6,31.3,30.03,NE,36,8.0,9.0,81,0.00,,FEW250,0.00,VWS V14.01,2013-04-05 07:45:00,
2013-04-05 02:50:00,36.4,31.4,30.03,NNE,25,3.0,12.0,82,0.00,,FEW250,0.00,VWS V14.01,2013-04-05 07:50:00,
2013-04-05 02:55:00,36.0,31.0,30.03,NNW,330,2.0,11.0,82,0.00,,FEW250,0.00,VWS V14.01,2013-04-05 07:55:00,
2013-04-05 03:00:00,35.7,31.0,30.03,North,360,1.0,8.0,83,0.00,,FEW250,0.00,VWS V14.01,2013-04-05 08:00:00,
2013-04-05 03:05:00,35.5,30.9,30.03,NNE,15,2.0,8.0,83,0.00,,FEW250,0.00,VWS V14.01,2013-04-05 08:05:00,
2013-04-05 03:10:00,35.4,30.8,30.04,North,355,8.0,9.0,83,0.00,,FEW250,0.00,VWS V14.01,2013-04-05 08:10:00,
2013-04-05 03:11:00,35.3,30.7,30.04,NNW,339,1.0,9.0,83,0.00,,FEW250,0.00,VWS V14.01,2013-04-05 08:11:00,
2013-04-05 03:15:00,35.2,30.6,30.04,NNW,342,1.0,6.0,83,0.00,,FEW250,0.00,VWS V14.01,2013-04-05 08:15:00,
2013-04-05 03:16:00,35.1,30.5,30.04,NNW,330,0.0,5.0,83,0.00,,FEW250,0.00,VWS V14.01,2013-04-05 08:16:00,
2013-04-05 03:20:00,35.0,30.7,30.04,NNW,330,0.0,2.0,84,0.00,,FEW250,0.00,VWS V14.01,2013-04-05 08:20:00,
2013-04-05 03:22:00,34.9,30.6,30.04,NNW,330,0.0,2.0,84,0.00,,FEW250,0.00,VWS V14.01,2013-04-05 08:22:00,
2013-04-05 03:25:00,34.9,30.3,30.04,NNW,330,1.0,2.0,83,0.00,,FEW250,0.00,VWS V14.01,2013-04-05 08:25:00,
2013-04-05 03:27:00,34.7,30.1,30.04,NNW,330,0.0,2.0,83,0.00,,FEW250,0.00,VWS V14.01,2013-04-05 08:27:00,
2013-04-05 03:30:00,34.7,30.1,30.04,NNW,330,0.0,2.0,83,0.00,,FEW250,0.00,VWS V14.01,2013-04-05 08:30:00,
2013-04-05 03:33:00,34.6,30.3,30.04,NNW,330,0.0,3.0,84,0.00,,FEW250,0.00,VWS V14.01,2013-04-05 08:33:00,
2013-04-05 03:35:00,34.6,30.3,30.04,NNW,331,0.0,3.0,84,0.00,,FEW250,0.00,VWS V14.01,2013-04-05 08:35:00,
2013-04-05 03:38:00,34.4,30.1,30.05,NNW,331,2.0,3.0,84,0.00,,FEW250,0.00,VWS V14.01,2013-04-05 08:38:00,
2013-04-05 03:40:00,34.4,30.1,30.05,NNW,331,2.0,3.0,84,0.00,,FEW250,0.00,VWS V14.01,2013-04-05 08:40:00,
2013-04-05 03:43:00,34.3,30.0,30.05,NNW,331,0.0,3.0,84,0.00,,FEW250,0.00,VWS V14.01,2013-04-05 08:43:00,
2013-04-05 03:45:00,34.3,30.0,30.05,NNW,330,1.0,3.0,84,0.00,,FEW250,0.00,VWS V14.01,2013-04-05 08:45:00,
2013-04-05 03:49:00,34.2,29.9,30.05,NNW,348,1.0,7.0,84,0.00,,FEW250,0.00,VWS V14.01,2013-04-05 08:49:00,
2013-04-05 03:50:00,34.2,29.9,30.05,North,349,0.0,7.0,84,0.00,,FEW250,0.00,VWS V14.01,2013-04-05 08:50:00,
2013-04-05 03:54:00,34.1,29.8,30.05,NNW,340,0.0,5.0,84,0.00,,FEW250,0.00,VWS V14.01,2013-04-05 08:54:00,
2013-04-05 03:55:00,34.2,29.9,30.05,NNW,340,1.0,5.0,84,0.00,,FEW250,0.00,VWS V14.01,2013-04-05 08:55:00,
2013-04-05 03:59:00,34.1,29.8,30.05,NNW,342,1.0,6.0,84,0.00,,FEW250,0.00,VWS V14.01,2013-04-05 08:59:00,
2013-04-05 04:00:00,34.1,29.8,30.05,NNW,342,1.0,6.0,84,0.00,,FEW250,0.00,VWS V14.01,2013-04-05 09:00:00,
2013-04-05 04:05:00,34.1,29.8,30.06,NNW,342,1.0,5.0,84,0.00,,FEW250,0.00,VWS V14.01,2013-04-05 09:05:00,
2013-04-05 04:10:00,34.0,29.7,30.06,NNW,339,0.0,2.0,84,0.00,,FEW250,0.00,VWS V14.01,2013-04-05 09:10:00,
2013-04-05 04:15:00,33.9,29.6,30.06,NNW,338,1.0,6.0,84,0.00,,FEW250,0.00,VWS V14.01,2013-04-05 09:15:00,
2013-04-05 04:20:00,33.8,29.8,30.06,NNW,338,1.0,3.0,85,0.00,,FEW250,0.00,VWS V14.01,2013-04-05 09:20:00,
2013-04-05 04:25:00,33.7,29.7,30.06,NNW,338,2.0,2.0,85,0.00,,FEW250,0.00,VWS V14.01,2013-04-05 09:25:00,
2013-04-05 04:30:00,33.7,29.7,30.06,NNW,338,2.0,3.0,85,0.00,,FEW250,0.00,VWS V14.01,2013-04-05 09:30:00,
2013-04-05 04:31:00,33.7,29.7,30.07,NNW,339,0.0,5.0,85,0.00,,FEW250,0.00,VWS V14.01,2013-04-05 09:31:00,
2013-04-05 04:35:00,33.6,29.9,30.07,NNW,338,0.0,5.0,86,0.00,,FEW250,0.00,VWS V14.01,2013-04-05 09:35:00,
2013-04-05 04:36:00,33.6,29.6,30.07,NNW,338,2.0,5.0,85,0.00,,FEW250,0.00,VWS V14.01,2013-04-05 09:36:00,
2013-04-05 04:40:00,33.6,29.6,30.07,NNW,338,1.0,5.0,85,0.00,,FEW250,0.00,VWS V14.01,2013-04-05 09:40:00,
2013-04-05 04:41:00,33.5,29.5,30.07,NNW,339,0.0,3.0,85,0.00,,FEW250,0.00,VWS V14.01,2013-04-05 09:41:00,
2013-04-05 04:45:00,33.5,29.8,30.07,NNW,340,0.0,3.0,86,0.00,,FEW250,0.00,VWS V14.01,2013-04-05 09:45:00,
2013-04-05 04:46:00,33.5,29.8,30.07,NNW,339,1.0,3.0,86,0.00,,FEW250,0.00,VWS V14.01,2013-04-05 09:46:00,
2013-04-05 04:50:00,33.4,29.7,30.07,NNW,338,3.0,3.0,86,0.00,,FEW250,0.00,VWS V14.01,2013-04-05 09:50:00,
2013-04-05 04:52:00,33.4,29.7,30.07,NNW,338,0.0,3.0,86,0.00,,FEW250,0.00,VWS V14.01,2013-04-05 09:52:00,
2013-04-05 04:55:00,33.4,29.7,30.07,NNW,338,0.0,2.0,86,0.00,,FEW250,0.00,VWS V14.01,2013-04-05 09:55:00,
2013-04-05 04:57:00,33.3,29.3,30.08,NNW,329,2.0,2.0,85,0.00,,FEW250,0.00,VWS V14.01,2013-04-05 09:57:00,
2013-04-05 05:00:00,33.3,29.6,30.08,NNW,331,1.0,2.0,86,0.00,,FEW250,0.00,VWS V14.01,2013-04-05 10:00:00,
2013-04-05 05:02:00,33.3,29.6,30.08,NNW,331,1.0,5.0,86,0.00,,FEW250,0.00,VWS V14.01,2013-04-05 10:02:00,
2013-04-05 05:05:00,33.2,29.5,30.08,NNW,332,4.0,5.0,86,0.00,,FEW250,0.00,VWS V14.01,2013-04-05 10:05:00,
2013-04-05 05:07:00,33.2,29.5,30.08,NNW,329,0.0,7.0,86,0.00,,FEW250,0.00,VWS V14.01,2013-04-05 10:07:00,
2013-04-05 05:10:00,33.2,29.5,30.08,NNW,336,3.0,7.0,86,0.00,,FEW250,0.00,VWS V14.01,2013-04-05 10:10:00,
2013-04-05 05:12:00,33.2,29.2,30.08,NNW,344,2.0,8.0,85,0.00,,FEW250,0.00,VWS V14.01,2013-04-05 10:12:00,
2013-04-05 05:15:00,33.2,29.2,30.08,NNW,332,3.0,7.0,85,0.00,,FEW250,0.00,VWS V14.01,2013-04-05 10:15:00,
2013-04-05 05:18:00,33.1,29.1,30.08,NNW,346,3.0,8.0,85,0.00,,FEW250,0.00,VWS V14.01,2013-04-05 10:18:00,
2013-04-05 05:20:00,33.1,29.1,30.08,NNW,336,6.0,8.0,85,0.00,,FEW250,0.00,VWS V14.01,2013-04-05 10:20:00,
2013-04-05 05:23:00,33.1,29.1,30.09,NNW,344,0.0,7.0,85,0.00,,FEW250,0.00,VWS V14.01,2013-04-05 10:23:00,
2013-04-05 05:25:00,33.1,29.1,30.09,NNW,344,3.0,6.0,85,0.00,,FEW250,0.00,VWS V14.01,2013-04-05 10:25:00,
2013-04-05 05:28:00,33.0,29.0,30.09,NE,46,1.0,7.0,85,0.00,,FEW250,0.00,VWS V14.01,2013-04-05 10:28:00,
2013-04-05 05:30:00,33.0,29.0,30.09,NE,44,0.0,7.0,85,0.00,,FEW250,0.00,VWS V14.01,2013-04-05 10:30:00,
2013-04-05 05:34:00,32.9,28.9,30.09,NNW,341,1.0,7.0,85,0.00,,FEW250,0.00,VWS V14.01,2013-04-05 10:34:00,
2013-04-05 05:35:00,32.9,28.9,30.09,NNW,342,1.0,7.0,85,0.00,,FEW250,0.00,VWS V14.01,2013-04-05 10:35:00,
2013-04-05 05:39:00,32.9,28.9,30.09,NNW,346,1.0,7.0,85,0.00,,FEW250,0.00,VWS V14.01,2013-04-05 10:39:00,
2013-04-05 05:40:00,32.9,28.9,30.09,NNW,346,1.0,7.0,85,0.00,,FEW250,0.00,VWS V14.01,2013-04-05 10:40:00,
2013-04-05 05:44:00,32.8,28.8,30.10,North,350,5.0,7.0,85,0.00,,FEW250,0.00,VWS V14.01,2013-04-05 10:44:00,
2013-04-05 05:45:00,32.8,28.8,30.10,North,350,5.0,7.0,85,0.00,,FEW250,0.00,VWS V14.01,2013-04-05 10:45:00,
2013-04-05 05:50:00,32.8,28.8,30.10,North,350,2.0,8.0,85,0.00,,FEW250,0.00,VWS V14.01,2013-04-05 10:50:00,
2013-04-05 05:55:00,32.7,28.7,30.10,North,355,1.0,5.0,85,0.00,,FEW250,0.00,VWS V14.01,2013-04-05 10:55:00,
2013-04-05 06:00:00,32.6,28.6,30.11,North,350,5.0,7.0,85,0.00,,FEW250,0.00,VWS V14.01,2013-04-05 11:00:00,
2013-04-05 06:05:00,32.6,28.6,30.11,North,355,2.0,7.0,85,0.00,,FEW250,0.00,VWS V14.01,2013-04-05 11:05:00,
2013-04-05 06:10:00,32.5,28.5,30.11,North,360,3.0,7.0,85,0.00,,FEW250,0.00,VWS V14.01,2013-04-05 11:10:00,
2013-04-05 06:15:00,32.5,28.5,30.11,North,350,2.0,7.0,85,0.00,,FEW250,0.00,VWS V14.01,2013-04-05 11:15:00,
2013-04-05 06:16:00,32.5,28.5,30.11,NNW,345,5.0,6.0,85,0.00,,FEW250,0.00,VWS V14.01,2013-04-05 11:16:00,
2013-04-05 06:20:00,32.4,28.4,30.11,NNW,334,2.0,7.0,85,0.00,,FEW250,0.00,VWS V14.01,2013-04-05 11:20:00,
2013-04-05 06:21:00,32.4,28.4,30.11,NNW,336,2.0,6.0,85,0.00,,FEW250,0.00,VWS V14.01,2013-04-05 11:21:00,
2013-04-05 06:25:00,32.4,28.4,30.12,NW,315,4.0,7.0,85,0.00,,FEW250,0.00,VWS V14.01,2013-04-05 11:25:00,
2013-04-05 06:26:00,32.4,28.4,30.12,NNW,340,1.0,7.0,85,0.00,,FEW250,0.00,VWS V14.01,2013-04-05 11:26:00,
2013-04-05 06:30:00,32.4,28.4,30.12,NNW,344,2.0,6.0,85,0.00,,FEW250,0.00,VWS V14.01,2013-04-05 11:30:00,
2013-04-05 06:31:00,32.3,28.3,30.12,NNW,342,0.0,7.0,85,0.00,,FEW250,0.00,VWS V14.01,2013-04-05 11:31:00,
2013-04-05 06:35:00,32.4,28.4,30.12,North,360,2.0,7.0,85,0.00,,FEW250,0.00,VWS V14.01,2013-04-05 11:35:00,
2013-04-05 06:36:00,32.4,28.4,30.12,NNW,342,1.0,7.0,85,0.00,,FEW250,0.00,VWS V14.01,2013-04-05 11:36:00,
2013-04-05 06:40:00,32.4,28.4,30.12,NNW,337,1.0,3.0,85,0.00,,FEW250,0.00,VWS V14.01,2013-04-05 11:40:00,
2013-04-05 06:42:00,32.4,28.4,30.12,NNW,338,1.0,5.0,85,0.00,,FEW250,0.00,VWS V14.01,2013-04-05 11:42:00,
2013-04-05 06:45:00,32.4,28.4,30.13,NNW,337,6.0,6.0,85,0.00,,FEW250,0.00,VWS V14.01,2013-04-05 11:45:00,
2013-04-05 06:47:00,32.4,28.4,30.13,NNW,342,6.0,6.0,85,0.00,,FEW250,0.00,VWS V14.01,2013-04-05 11:47:00,
2013-04-05 06:50:00,32.4,28.4,30.13,NNW,343,5.0,6.0,85,0.00,,FEW250,0.00,VWS V14.01,2013-04-05 11:50:00,
2013-04-05 06:52:00,32.5,28.2,30.13,NNW,345,1.0,6.0,84,0.00,,FEW250,0.00,VWS V14.01,2013-04-05 11:52:00,
2013-04-05 06:55:00,32.5,28.2,30.13,North,351,2.0,6.0,84,0.00,,FEW250,0.00,VWS V14.01,2013-04-05 11:55:00,
2013-04-05 06:57:00,32.6,28.3,30.13,NNW,342,2.0,7.0,84,0.00,,FEW250,0.00,VWS V14.01,2013-04-05 11:57:00,
2013-04-05 07:00:00,32.6,28.3,30.13,North,351,2.0,7.0,84,0.00,,FEW250,0.00,VWS V14.01,2013-04-05 12:00:00,
2013-04-05 07:03:00,32.8,28.5,30.14,NNW,341,7.0,7.0,84,0.00,,FEW035,0.00,VWS V14.01,2013-04-05 12:03:00,
2013-04-05 07:05:00,32.8,28.5,30.14,North,355,1.0,7.0,84,0.00,,FEW250,0.00,VWS V14.01,2013-04-05 12:05:00,
2013-04-05 07:08:00,32.9,28.3,30.14,NNW,341,2.0,6.0,83,0.00,,FEW035,0.00,VWS V14.01,2013-04-05 12:08:00,
2013-04-05 07:10:00,33.0,28.4,30.14,NNW,347,2.0,6.0,83,0.00,,FEW250,0.00,VWS V14.01,2013-04-05 12:10:00,
2013-04-05 07:13:00,33.1,28.5,30.14,NNW,346,0.0,5.0,83,0.00,,FEW035,0.00,VWS V14.01,2013-04-05 12:13:00,
2013-04-05 07:15:00,33.1,28.5,30.14,NNW,344,2.0,5.0,83,0.00,,FEW250,0.00,VWS V14.01,2013-04-05 12:15:00,
2013-04-05 07:18:00,33.3,28.7,30.15,NNW,346,6.0,6.0,83,0.00,,FEW035,0.00,VWS V14.01,2013-04-05 12:18:00,
2013-04-05 07:20:00,33.3,28.4,30.15,NNW,347,1.0,6.0,82,0.00,,FEW250,0.00,VWS V14.01,2013-04-05 12:20:00,
2013-04-05 07:23:00,33.4,28.5,30.15,NNW,344,2.0,8.0,82,0.00,,FEW035,0.00,VWS V14.01,2013-04-05 12:23:00,
2013-04-05 07:25:00,33.4,28.5,30.15,NNW,344,6.0,8.0,82,0.00,,FEW250,0.00,VWS V14.01,2013-04-05 12:25:00,
2013-04-05 07:29:00,33.6,28.7,30.15,North,355,2.0,7.0,82,0.00,,FEW035,0.00,VWS V14.01,2013-04-05 12:29:00,
2013-04-05 07:30:00,33.6,28.7,30.15,North,355,2.0,7.0,82,0.00,,FEW250,0.00,VWS V14.01,2013-04-05 12:30:00,
2013-04-05 07:34:00,33.9,29.0,30.15,NNW,347,4.0,9.0,82,0.00,,FEW035,0.00,VWS V14.01,2013-04-05 12:34:00,
2013-04-05 07:35:00,33.8,28.9,30.15,NNW,348,1.0,9.0,82,0.00,,FEW250,0.00,VWS V14.01,2013-04-05 12:35:00,
2013-04-05 07:39:00,34.2,29.0,30.16,North,360,2.0,7.0,81,0.00,,FEW035,0.00,VWS V14.01,2013-04-05 12:39:00,
2013-04-05 07:40:00,34.2,29.0,30.15,North,5,6.0,7.0,81,0.00,,FEW250,0.00,VWS V14.01,2013-04-05 12:40:00,
2013-04-05 07:44:00,34.7,29.5,30.16,NNW,333,6.0,8.0,81,0.00,,FEW035,0.00,VWS V14.01,2013-04-05 12:44:00,
2013-04-05 07:45:00,34.7,29.5,30.16,NNW,348,2.0,8.0,81,0.00,,FEW250,0.00,VWS V14.01,2013-04-05 12:45:00,
2013-04-05 07:49:00,35.1,29.6,30.16,North,360,8.0,8.0,80,0.00,,FEW035,0.00,VWS V14.01,2013-04-05 12:49:00,
2013-04-05 07:50:00,35.1,29.6,30.16,NNE,24,1.0,8.0,80,0.00,,FEW250,0.00,VWS V14.01,2013-04-05 12:50:00,
2013-04-05 07:55:00,35.5,30.0,30.16,NNE,28,3.0,8.0,80,0.00,,FEW035,0.00,VWS V14.01,2013-04-05 12:55:00,
2013-04-05 08:00:00,35.9,30.0,30.16,NNE,19,12.0,13.0,79,0.00,,FEW035,0.00,VWS V14.01,2013-04-05 13:00:00,
2013-04-05 08:05:00,36.4,30.2,30.16,NNE,30,5.0,14.0,78,0.00,,SCT035,0.00,VWS V14.01,2013-04-05 13:05:00,
2013-04-05 08:10:00,36.6,30.4,30.16,NE,35,8.0,20.0,78,0.00,,SCT035,0.00,VWS V14.01,2013-04-05 13:10:00,
2013-04-05 08:15:00,36.8,30.6,30.16,NNE,16,3.0,14.0,78,0.00,,SCT035,0.00,VWS V14.01,2013-04-05 13:15:00,
2013-04-05 08:20:00,36.9,30.4,30.17,NNE,26,6.0,15.0,77,0.00,,SCT035,0.00,VWS V14.01,2013-04-05 13:20:00,
2013-04-05 08:25:00,37.0,30.5,30.17,NE,48,14.0,16.0,77,0.00,,FEW250,0.00,VWS V14.01,2013-04-05 13:25:00,
2013-04-05 08:26:00,36.9,30.4,30.17,ENE,66,7.0,16.0,77,0.00,,SCT035,0.00,VWS V14.01,2013-04-05 13:26:00,
2013-04-05 08:30:00,36.8,30.3,30.17,NE,34,11.0,15.0,77,0.00,,FEW250,0.00,VWS V14.01,2013-04-05 13:30:00,
2013-04-05 08:31:00,36.7,29.9,30.17,North,9,6.0,15.0,76,0.00,,SCT035,0.00,VWS V14.01,2013-04-05 13:31:00,
2013-04-05 08:35:00,36.8,30.3,30.17,NNE,19,7.0,15.0,77,0.00,,FEW250,0.00,VWS V14.01,2013-04-05 13:35:00,
2013-04-05 08:37:00,37.0,30.5,30.17,NNE,29,7.0,12.0,77,0.00,,SCT035,0.00,VWS V14.01,2013-04-05 13:37:00,
2013-04-05 08:40:00,37.0,30.1,30.17,NE,34,9.0,13.0,76,0.00,,FEW250,0.00,VWS V14.01,2013-04-05 13:40:00,
2013-04-05 08:42:00,36.7,29.9,30.17,NNE,28,12.0,17.0,76,0.00,,SCT035,0.00,VWS V14.01,2013-04-05 13:42:00,
2013-04-05 08:45:00,36.5,29.7,30.17,NNE,28,12.0,17.0,76,0.00,,FEW250,0.00,VWS V14.01,2013-04-05 13:45:00,
2013-04-05 08:47:00,36.5,30.0,30.18,NNE,24,12.0,15.0,77,0.00,,SCT035,0.00,VWS V14.01,2013-04-05 13:47:00,
2013-04-05 08:50:00,36.5,29.7,30.18,NE,50,8.0,16.0,76,0.00,,FEW250,0.00,VWS V14.01,2013-04-05 13:50:00,
2013-04-05 08:52:00,36.7,29.9,30.18,NE,39,11.0,14.0,76,0.00,,SCT035,0.00,VWS V14.01,2013-04-05 13:52:00,
2013-04-05 08:55:00,36.7,29.9,30.18,NE,34,14.0,15.0,76,0.00,,FEW250,0.00,VWS V14.01,2013-04-05 13:55:00,
2013-04-05 08:57:00,36.7,30.2,30.18,NNE,24,11.0,16.0,77,0.00,,SCT035,0.00,VWS V14.01,2013-04-05 13:57:00,
2013-04-05 09:00:00,36.6,29.8,30.18,North,9,7.0,17.0,76,0.00,,FEW250,0.00,VWS V14.01,2013-04-05 14:00:00,
2013-04-05 09:02:00,36.8,29.6,30.18,NE,51,12.0,17.0,75,0.00,,SCT018,0.00,VWS V14.01,2013-04-05 14:02:00,
2013-04-05 09:05:00,36.8,29.6,30.18,NE,34,7.0,16.0,75,0.00,,FEW250,0.00,VWS V14.01,2013-04-05 14:05:00,
2013-04-05 09:08:00,36.8,30.0,30.18,NE,42,11.0,15.0,76,0.00,,SCT018,0.00,VWS V14.01,2013-04-05 14:08:00,
2013-04-05 09:10:00,36.9,30.4,30.18,North,9,6.0,15.0,77,0.00,,FEW250,0.00,VWS V14.01,2013-04-05 14:10:00,
2013-04-05 09:13:00,37.1,30.6,30.19,NE,49,13.0,16.0,77,0.00,,SCT018,0.00,VWS V14.01,2013-04-05 14:13:00,
2013-04-05 09:15:00,37.0,30.5,30.19,ENE,59,13.0,18.0,77,0.00,,FEW250,0.00,VWS V14.01,2013-04-05 14:15:00,
2013-04-05 09:18:00,36.6,30.1,30.18,NNW,342,11.0,17.0,77,0.00,,SCT018,0.00,VWS V14.01,2013-04-05 14:18:00,
2013-04-05 09:20:00,36.6,30.1,30.18,North,355,13.0,17.0,77,0.00,,FEW250,0.00,VWS V14.01,2013-04-05 14:20:00,
2013-04-05 09:24:00,36.7,29.9,30.19,NNE,15,13.0,16.0,76,0.00,,SCT018,0.00,VWS V14.01,2013-04-05 14:24:00,
2013-04-05 09:25:00,36.7,29.9,30.19,NNE,15,13.0,16.0,76,0.00,,FEW250,0.00,VWS V14.01,2013-04-05 14:25:00,
2013-04-05 09:29:00,36.9,30.4,30.18,NNE,14,7.0,17.0,77,0.00,,SCT018,0.00,VWS V14.01,2013-04-05 14:29:00,
2013-04-05 09:30:00,36.9,30.4,30.18,NNE,14,7.0,17.0,77,0.00,,FEW250,0.00,VWS V14.01,2013-04-05 14:30:00,
2013-04-05 09:34:00,37.2,30.7,30.19,NE,39,13.0,17.0,77,0.00,,BKN030,0.00,VWS V14.01,2013-04-05 14:34:00,
2013-04-05 09:35:00,37.1,30.6,30.19,NNE,16,11.0,17.0,77,0.00,,FEW250,0.00,VWS V14.01,2013-04-05 14:35:00,
2013-04-05 09:39:00,36.8,30.0,30.19,NNE,22,12.0,16.0,76,0.00,,BKN030,0.00,VWS V14.01,2013-04-05 14:39:00,
2013-04-05 09:40:00,36.9,30.0,30.19,NNW,348,13.0,17.0,76,0.00,,FEW250,0.00,VWS V14.01,2013-04-05 14:40:00,
2013-04-05 09:45:00,36.6,30.1,30.19,North,350,4.0,16.0,77,0.00,,BKN030,0.00,VWS V14.01,2013-04-05 14:45:00,
2013-04-05 09:50:00,36.6,30.1,30.19,NE,45,12.0,15.0,77,0.00,,BKN030,0.00,VWS V14.01,2013-04-05 14:50:00,
2013-04-05 09:55:00,36.5,29.7,30.19,NE,38,7.0,18.0,76,0.00,,FEW250,0.00,VWS V14.01,2013-04-05 14:55:00,
2013-04-05 09:56:00,36.4,29.6,30.19,NNE,32,10.0,17.0,76,0.00,,BKN030,0.00,VWS V14.01,2013-04-05 14:56:00,
2013-04-05 10:00:00,36.5,30.0,30.20,ENE,63,4.0,16.0,77,0.00,,FEW250,0.00,VWS V14.01,2013-04-05 15:00:00,
2013-04-05 10:01:00,36.6,29.8,30.20,NNE,19,4.0,16.0,76,0.00,,BKN028,0.00,VWS V14.01,2013-04-05 15:01:00,
2013-04-05 10:05:00,37.0,29.5,30.20,NNE,32,6.0,15.0,74,0.00,,FEW250,0.00,VWS V14.01,2013-04-05 15:05:00,
2013-04-05 10:06:00,37.3,28.8,30.20,NNE,22,12.0,15.0,71,0.00,,BKN028,0.00,VWS V14.01,2013-04-05 15:06:00,
2013-04-05 10:10:00,37.5,28.6,30.20,ENE,57,12.0,14.0,70,0.00,,FEW250,0.00,VWS V14.01,2013-04-05 15:10:00,
2013-04-05 10:12:00,37.5,28.3,30.20,North,360,6.0,12.0,69,0.00,,BKN028,0.00,VWS V14.01,2013-04-05 15:12:00,
2013-04-05 10:15:00,37.4,27.8,30.20,NE,41,8.0,13.0,68,0.00,,FEW250,0.00,VWS V14.01,2013-04-05 15:15:00,
2013-04-05 10:17:00,37.2,28.0,30.20,NE,43,4.0,13.0,69,0.00,,BKN028,0.00,VWS V14.01,2013-04-05 15:17:00,
2013-04-05 10:20:00,37.6,28.7,30.21,North,355,4.0,12.0,70,0.00,,FEW250,0.00,VWS V14.01,2013-04-05 15:20:00,
2013-04-05 10:22:00,38.2,28.9,30.21,ENE,59,8.0,9.0,69,0.00,,BKN028,0.00,VWS V14.01,2013-04-05 15:22:00,
2013-04-05 10:25:00,38.3,29.0,30.21,NE,41,9.0,10.0,69,0.00,,FEW250,0.00,VWS V14.01,2013-04-05 15:25:00,
2013-04-05 10:27:00,37.8,28.2,30.21,NNE,32,4.0,12.0,68,0.00,,BKN028,0.00,VWS V14.01,2013-04-05 15:27:00,
2013-04-05 10:30:00,37.7,28.1,30.21,NE,40,5.0,12.0,68,0.00,,FEW250,0.00,VWS V14.01,2013-04-05 15:30:00,
2013-04-05 10:33:00,37.7,27.8,30.21,NNE,13,14.0,14.0,67,0.00,,BKN028,0.00,VWS V14.01,2013-04-05 15:33:00,
2013-04-05 10:35:00,37.6,27.6,30.21,NNE,28,12.0,15.0,67,0.00,,FEW250,0.00,VWS V14.01,2013-04-05 15:35:00,
2013-04-05 10:38:00,37.6,28.4,30.21,North,351,2.0,14.0,69,0.00,,BKN028,0.00,VWS V14.01,2013-04-05 15:38:00,
2013-04-05 10:40:00,37.8,28.2,30.21,North,360,3.0,14.0,68,0.00,,FEW250,0.00,VWS V14.01,2013-04-05 15:40:00,
2013-04-05 10:43:00,37.7,27.4,30.21,NNE,26,4.0,17.0,66,0.00,,BKN028,0.00,VWS V14.01,2013-04-05 15:43:00,
2013-04-05 10:45:00,37.8,27.5,30.21,NE,37,9.0,17.0,66,0.00,,FEW250,0.00,VWS V14.01,2013-04-05 15:45:00,
2013-04-05 10:48:00,37.9,27.9,30.21,North,360,10.0,15.0,67,0.00,,BKN028,0.00,VWS V14.01,2013-04-05 15:48:00,
2013-04-05 10:50:00,37.8,27.8,30.21,WSW,252,3.0,15.0,67,0.00,,FEW250,0.00,VWS V14.01,2013-04-05 15:50:00,
2013-04-05 10:54:00,37.7,28.1,30.21,NE,44,10.0,16.0,68,0.00,,BKN028,0.00,VWS V14.01,2013-04-05 15:54:00,
2013-04-05 10:55:00,37.7,27.8,30.21,NNE,21,14.0,16.0,67,0.00,,FEW250,0.00,VWS V14.01,2013-04-05 15:55:00,
2013-04-05 10:59:00,37.4,27.5,30.21,NE,34,9.0,14.0,67,0.00,,BKN028,0.00,VWS V14.01,2013-04-05 15:59:00,
2013-04-05 11:00:00,37.4,27.5,30.21,NE,34,9.0,14.0,67,0.00,,FEW250,0.00,VWS V14.01,2013-04-05 16:00:00,
2013-04-05 11:04:00,37.4,27.5,30.21,East,89,2.0,15.0,67,0.00,,BKN028,0.00,VWS V14.01,2013-04-05 16:04:00,
2013-04-05 11:05:00,37.4,27.5,30.21,East,89,2.0,15.0,67,0.00,,FEW250,0.00,VWS V14.01,2013-04-05 16:05:00,
2013-04-05 11:09:00,37.2,26.9,30.22,East,88,7.0,16.0,66,0.00,,BKN028,0.00,VWS V14.01,2013-04-05 16:09:00,
2013-04-05 11:10:00,37.2,26.9,30.21,North,11,7.0,16.0,66,0.00,,FEW250,0.00,VWS V14.01,2013-04-05 16:10:00,
2013-04-05 11:14:00,37.2,27.3,30.22,NE,42,6.0,17.0,67,0.00,,BKN028,0.00,VWS V14.01,2013-04-05 16:14:00,
2013-04-05 11:15:00,37.2,27.3,30.22,North,355,6.0,17.0,67,0.00,,FEW250,0.00,VWS V14.01,2013-04-05 16:15:00,
2013-04-05 11:20:00,37.4,27.1,30.22,NE,46,5.0,11.0,66,0.00,,BKN028,0.00,VWS V14.01,2013-04-05 16:20:00,
2013-04-05 11:25:00,37.4,26.7,30.22,NNW,348,6.0,13.0,65,0.00,,BKN028,0.00,VWS V14.01,2013-04-05 16:25:00,
2013-04-05 11:30:00,37.4,26.7,30.22,NE,42,2.0,12.0,65,0.00,,BKN028,0.00,VWS V14.01,2013-04-05 16:30:00,
2013-04-05 11:35:00,37.2,26.5,30.22,NE,45,9.0,16.0,65,0.00,,BKN028,0.00,VWS V14.01,2013-04-05 16:35:00,
2013-04-05 11:40:00,37.3,27.7,30.22,NE,38,11.0,14.0,68,0.00,,FEW250,0.00,VWS V14.01,2013-04-05 16:40:00,
2013-04-05 11:41:00,37.4,27.8,30.22,NNE,28,11.0,14.0,68,0.00,,BKN028,0.00,VWS V14.01,2013-04-05 16:41:00,
2013-04-05 11:45:00,37.3,27.7,30.22,ENE,61,5.0,13.0,68,0.00,,FEW250,0.00,VWS V14.01,2013-04-05 16:45:00,
2013-04-05 11:46:00,37.3,27.7,30.22,NE,45,7.0,11.0,68,0.00,,BKN028,0.00,VWS V14.01,2013-04-05 16:46:00,
2013-04-05 11:50:00,36.9,27.0,30.22,NE,49,10.0,15.0,67,0.00,,FEW250,0.00,VWS V14.01,2013-04-05 16:50:00,
2013-04-05 11:51:00,36.6,27.0,30.21,NE,55,8.0,15.0,68,0.00,,BKN028,0.00,VWS V14.01,2013-04-05 16:51:00,
2013-04-05 11:55:00,36.5,26.6,30.21,ENE,59,9.0,12.0,67,0.00,,FEW250,0.00,VWS V14.01,2013-04-05 16:55:00,
2013-04-05 11:56:00,36.4,26.1,30.21,NE,46,7.0,11.0,66,0.00,,BKN028,0.00,VWS V14.01,2013-04-05 16:56:00,
2013-04-05 12:00:00,36.5,26.6,30.21,ENE,68,9.0,11.0,67,0.00,,FEW250,0.00,VWS V14.01,2013-04-05 17:00:00,
2013-04-05 12:01:00,36.5,26.2,30.21,NNE,19,6.0,13.0,66,0.00,,BKN028,0.00,VWS V14.01,2013-04-05 17:01:00,
2013-04-05 12:05:00,36.4,26.1,30.21,NE,42,7.0,12.0,66,0.00,,FEW250,0.00,VWS V14.01,2013-04-05 17:05:00,
2013-04-05 12:07:00,36.2,26.0,30.21,NE,35,6.0,13.0,66,0.00,,BKN028,0.00,VWS V14.01,2013-04-05 17:07:00,
2013-04-05 12:10:00,36.2,26.0,30.21,ENE,67,13.0,13.0,66,0.00,,FEW250,0.00,VWS V14.01,2013-04-05 17:10:00,
2013-04-05 12:12:00,36.1,25.1,30.21,NNE,30,12.0,13.0,64,0.00,,BKN028,0.00,VWS V14.01,2013-04-05 17:12:00,
2013-04-05 12:15:00,35.8,24.8,30.21,NE,46,11.0,13.0,64,0.00,,FEW250,0.00,VWS V14.01,2013-04-05 17:15:00,
2013-04-05 12:17:00,35.8,26.3,30.21,NE,35,5.0,12.0,68,0.00,,BKN028,0.00,VWS V14.01,2013-04-05 17:17:00,
2013-04-05 12:20:00,35.7,25.8,30.21,NNE,32,5.0,14.0,67,0.00,,FEW250,0.00,VWS V14.01,2013-04-05 17:20:00,
2013-04-05 12:23:00,35.9,26.4,30.21,NE,37,8.0,14.0,68,0.00,,BKN028,0.00,VWS V14.01,2013-04-05 17:23:00,
2013-04-05 12:25:00,36.0,26.1,30.21,ENE,61,8.0,14.0,67,0.00,,FEW250,0.00,VWS V14.01,2013-04-05 17:25:00,
2013-04-05 12:28:00,35.9,25.7,30.20,North,9,4.0,14.0,66,0.00,,BKN028,0.00,VWS V14.01,2013-04-05 17:28:00,
2013-04-05 12:30:00,36.0,25.8,30.20,NNE,28,9.0,14.0,66,0.00,,FEW250,0.00,VWS V14.01,2013-04-05 17:30:00,
2013-04-05 12:33:00,35.8,25.6,30.21,NE,52,5.0,13.0,66,0.00,,BKN028,0.00,VWS V14.01,2013-04-05 17:33:00,
2013-04-05 12:35:00,35.9,25.7,30.21,NE,38,6.0,13.0,66,0.00,,FEW250,0.00,VWS V14.01,2013-04-05 17:35:00,
2013-04-05 12:39:00,36.6,26.0,30.20,NE,36,7.0,11.0,65,0.00,,BKN028,0.00,VWS V14.01,2013-04-05 17:39:00,
2013-04-05 12:40:00,36.6,26.0,30.20,NE,38,4.0,11.0,65,0.00,,FEW250,0.00,VWS V14.01,2013-04-05 17:40:00,
2013-04-05 12:44:00,36.2,26.0,30.20,NNE,28,5.0,13.0,66,0.00,,BKN028,0.00,VWS V14.01,2013-04-05 17:44:00,
2013-04-05 12:45:00,36.2,26.0,30.20,NNE,27,6.0,13.0,66,0.00,,FEW250,0.00,VWS V14.01,2013-04-05 17:45:00,
2013-04-05 12:49:00,36.0,25.8,30.20,ENE,75,8.0,12.0,66,0.00,,BKN028,0.00,VWS V14.01,2013-04-05 17:49:00,
2013-04-05 12:50:00,36.0,25.8,30.20,NE,50,11.0,12.0,66,0.00,,FEW250,0.00,VWS V14.01,2013-04-05 17:50:00,
2013-04-05 12:54:00,35.6,25.4,30.20,NNE,20,8.0,13.0,66,0.00,,BKN028,0.00,VWS V14.01,2013-04-05 17:54:00,
2013-04-05 12:55:00,35.7,25.5,30.20,NE,42,10.0,13.0,66,0.00,,FEW250,0.00,VWS V14.01,2013-04-05 17:55:00,
2013-04-05 13:00:00,35.8,25.2,30.20,NE,40,10.0,13.0,65,0.00,,BKN028,0.00,VWS V14.01,2013-04-05 18:00:00,
2013-04-05 13:05:00,35.6,24.6,30.19,NE,53,9.0,15.0,64,0.00,,SCT250,0.00,VWS V14.01,2013-04-05 18:05:00,
2013-04-05 13:10:00,35.5,23.4,30.19,NNE,30,9.0,12.0,61,0.00,,SCT250,0.00,VWS V14.01,2013-04-05 18:10:00,
2013-04-05 13:15:00,35.3,24.0,30.19,ENE,61,8.0,15.0,63,0.00,,SCT250,0.00,VWS V14.01,2013-04-05 18:15:00,
2013-04-05 13:20:00,35.7,24.0,30.19,ENE,58,7.0,12.0,62,0.00,,SCT250,0.00,VWS V14.01,2013-04-05 18:20:00,
2013-04-05 13:25:00,35.3,24.0,30.19,ENE,58,9.0,13.0,63,0.00,,FEW250,0.00,VWS V14.01,2013-04-05 18:25:00,
2013-04-05 13:26:00,35.4,24.8,30.19,ESE,107,7.0,13.0,65,0.00,,SCT250,0.00,VWS V14.01,2013-04-05 18:26:00,
2013-04-05 13:30:00,35.9,24.2,30.19,NNE,21,13.0,13.0,62,0.00,,FEW250,0.00,VWS V14.01,2013-04-05 18:30:00,
2013-04-05 13:31:00,35.8,23.7,30.19,East,101,3.0,15.0,61,0.00,,SCT250,0.00,VWS V14.01,2013-04-05 18:31:00,
2013-04-05 13:35:00,36.2,24.5,30.19,ENE,76,8.0,14.0,62,0.00,,FEW250,0.00,VWS V14.01,2013-04-05 18:35:00,
2013-04-05 13:36:00,36.0,23.5,30.19,NNE,24,11.0,13.0,60,0.00,,SCT250,0.00,VWS V14.01,2013-04-05 18:36:00,
2013-04-05 13:40:00,36.0,24.3,30.19,NNE,12,3.0,14.0,62,0.00,,FEW250,0.00,VWS V14.01,2013-04-05 18:40:00,
2013-04-05 13:41:00,36.3,24.5,30.19,NE,36,9.0,12.0,62,0.00,,SCT250,0.00,VWS V14.01,2013-04-05 18:41:00,
2013-04-05 13:45:00,35.9,23.4,30.19,NE,41,5.0,12.0,60,0.00,,FEW250,0.00,VWS V14.01,2013-04-05 18:45:00,
2013-04-05 13:47:00,35.6,23.5,30.19,NNE,28,8.0,12.0,61,0.00,,SCT250,0.00,VWS V14.01,2013-04-05 18:47:00,
2013-04-05 13:50:00,35.7,23.2,30.19,NE,41,3.0,11.0,60,0.00,,FEW250,0.00,VWS V14.01,2013-04-05 18:50:00,
2013-04-05 13:52:00,35.8,22.9,30.19,NE,38,5.0,11.0,59,0.00,,SCT250,0.00,VWS V14.01,2013-04-05 18:52:00,
2013-04-05 13:55:00,35.9,23.4,30.19,ESE,115,3.0,10.0,60,0.00,,FEW250,0.00,VWS V14.01,2013-04-05 18:55:00,
2013-04-05 13:57:00,36.5,24.3,30.19,NE,49,7.0,13.0,61,0.00,,SCT250,0.00,VWS V14.01,2013-04-05 18:57:00,
2013-04-05 14:00:00,36.2,23.7,30.19,NE,44,8.0,13.0,60,0.00,,FEW250,0.00,VWS V14.01,2013-04-05 19:00:00,
2013-04-05 14:02:00,36.0,24.3,30.19,NE,48,9.0,13.0,62,0.00,,BKN250,0.00,VWS V14.01,2013-04-05 19:02:00,
2013-04-05 14:05:00,36.1,24.7,30.19,NE,38,5.0,11.0,63,0.00,,FEW250,0.00,VWS V14.01,2013-04-05 19:05:00,
2013-04-05 14:08:00,36.2,24.1,30.19,NE,44,3.0,10.0,61,0.00,,BKN250,0.00,VWS V14.01,2013-04-05 19:08:00,
2013-04-05 14:10:00,36.3,24.1,30.19,NE,53,5.0,10.0,61,0.00,,FEW250,0.00,VWS V14.01,2013-04-05 19:10:00,
2013-04-05 14:13:00,36.6,24.0,30.18,East,101,6.0,10.0,60,0.00,,BKN250,0.00,VWS V14.01,2013-04-05 19:13:00,
2013-04-05 14:15:00,36.7,23.7,30.18,NE,46,8.0,10.0,59,0.00,,FEW250,0.00,VWS V14.01,2013-04-05 19:15:00,
2013-04-05 14:18:00,36.6,24.0,30.18,NE,47,3.0,13.0,60,0.00,,BKN250,0.00,VWS V14.01,2013-04-05 19:18:00,
2013-04-05 14:20:00,36.6,23.6,30.18,NNE,32,6.0,13.0,59,0.00,,FEW250,0.00,VWS V14.01,2013-04-05 19:20:00,
2013-04-05 14:24:00,36.3,24.1,30.18,East,79,7.0,13.0,61,0.00,,BKN250,0.00,VWS V14.01,2013-04-05 19:24:00,
2013-04-05 14:25:00,36.3,24.1,30.18,NNW,348,10.0,13.0,61,0.00,,FEW250,0.00,VWS V14.01,2013-04-05 19:25:00,
2013-04-05 14:29:00,36.1,23.2,30.17,NE,38,2.0,14.0,59,0.00,,BKN250,0.00,VWS V14.01,2013-04-05 19:29:00,
2013-04-05 14:30:00,36.1,23.2,30.17,NE,36,4.0,14.0,59,0.00,,FEW250,0.00,VWS V14.01,2013-04-05 19:30:00,
2013-04-05 14:34:00,36.1,24.0,30.17,NNE,23,8.0,10.0,61,0.00,,BKN250,0.00,VWS V14.01,2013-04-05 19:34:00,
2013-04-05 14:35:00,36.1,24.0,30.17,NNE,23,8.0,10.0,61,0.00,,FEW250,0.00,VWS V14.01,2013-04-05 19:35:00,
2013-04-05 14:39:00,36.6,24.4,30.18,ENE,63,4.0,10.0,61,0.00,,BKN250,0.00,VWS V14.01,2013-04-05 19:39:00,
2013-04-05 14:40:00,36.5,24.3,30.18,ENE,77,7.0,10.0,61,0.00,,FEW250,0.00,VWS V14.01,2013-04-05 19:40:00,
2013-04-05 14:44:00,36.4,23.9,30.18,NNE,17,6.0,9.0,60,0.00,,BKN250,0.00,VWS V14.01,2013-04-05 19:44:00,
2013-04-05 14:45:00,36.4,23.9,30.18,ENE,69,5.0,9.0,60,0.00,,FEW250,0.00,VWS V14.01,2013-04-05 19:45:00,
2013-04-05 14:49:00,36.3,23.8,30.18,ENE,65,5.0,11.0,60,0.00,,BKN250,0.00,VWS V14.01,2013-04-05 19:49:00,
2013-04-05 14:50:00,36.2,23.7,30.18,SE,127,2.0,10.0,60,0.00,,FEW250,0.00,VWS V14.01,2013-04-05 19:50:00,
2013-04-05 14:55:00,36.4,23.9,30.18,ENE,57,3.0,9.0,60,0.00,,BKN250,0.00,VWS V14.01,2013-04-05 19:55:00,
2013-04-05 15:00:00,36.2,22.9,30.18,ENE,72,2.0,10.0,58,0.00,,BKN250,0.00,VWS V14.01,2013-04-05 20:00:00,
2013-04-05 15:05:00,36.4,23.0,30.17,ENE,59,3.0,12.0,58,0.00,,BKN250,0.00,VWS V14.01,2013-04-05 20:05:00,
2013-04-05 15:10:00,36.2,22.5,30.17,NNE,24,6.0,12.0,57,0.00,,BKN250,0.00,VWS V14.01,2013-04-05 20:10:00,
2013-04-05 15:15:00,35.8,22.5,30.17,NE,50,7.0,11.0,58,0.00,,FEW250,0.00,VWS V14.01,2013-04-05 20:15:00,
2013-04-05 15:16:00,35.7,22.4,30.17,NE,48,6.0,10.0,58,0.00,,BKN250,0.00,VWS V14.01,2013-04-05 20:16:00,
2013-04-05 15:20:00,35.5,23.4,30.17,NE,46,4.0,11.0,61,0.00,,FEW250,0.00,VWS V14.01,2013-04-05 20:20:00,
2013-04-05 15:21:00,35.4,23.7,30.17,NE,35,1.0,11.0,62,0.00,,BKN250,0.00,VWS V14.01,2013-04-05 20:21:00,
2013-04-05 15:25:00,35.6,23.9,30.17,NE,36,4.0,11.0,62,0.00,,FEW250,0.00,VWS V14.01,2013-04-05 20:25:00,
2013-04-05 15:26:00,35.7,24.0,30.17,NE,34,1.0,10.0,62,0.00,,BKN250,0.00,VWS V14.01,2013-04-05 20:26:00,
2013-04-05 15:30:00,35.8,24.5,30.17,NNE,19,6.0,11.0,63,0.00,,FEW250,0.00,VWS V14.01,2013-04-05 20:30:00,
2013-04-05 15:31:00,35.7,24.0,30.17,NNE,32,8.0,12.0,62,0.00,,BKN250,0.00,VWS V14.01,2013-04-05 20:31:00,
2013-04-05 15:35:00,35.6,24.6,30.16,NE,38,5.0,14.0,64,0.00,,FEW250,0.00,VWS V14.01,2013-04-05 20:35:00,
2013-04-05 15:37:00,35.6,23.9,30.16,NNE,32,5.0,14.0,62,0.00,,BKN250,0.00,VWS V14.01,2013-04-05 20:37:00,
2013-04-05 15:40:00,35.5,24.5,30.16,NE,51,7.0,13.0,64,0.00,,FEW250,0.00,VWS V14.01,2013-04-05 20:40:00,
2013-04-05 15:42:00,35.8,24.8,30.16,NE,50,3.0,12.0,64,0.00,,BKN250,0.00,VWS V14.01,2013-04-05 20:42:00,
2013-04-05 15:45:00,36.0,24.6,30.16,NE,55,8.0,11.0,63,0.00,,FEW250,0.00,VWS V14.01,2013-04-05 20:45:00,
2013-04-05 15:47:00,35.8,24.1,30.17,ENE,57,10.0,11.0,62,0.00,,BKN250,0.00,VWS V14.01,2013-04-05 20:47:00,
2013-04-05 15:50:00,35.7,24.4,30.17,NE,38,11.0,11.0,63,0.00,,FEW250,0.00,VWS V14.01,2013-04-05 20:50:00,
2013-04-05 15:52:00,35.9,25.3,30.17,NE,40,8.0,12.0,65,0.00,,BKN250,0.00,VWS V14.01,2013-04-05 20:52:00,
2013-04-05 15:55:00,35.8,24.5,30.17,North,360,4.0,13.0,63,0.00,,FEW250,0.00,VWS V14.01,2013-04-05 20:55:00,
2013-04-05 15:57:00,35.8,24.1,30.17,NE,38,3.0,12.0,62,0.00,,BKN250,0.00,VWS V14.01,2013-04-05 20:57:00,
2013-04-05 16:00:00,35.9,24.9,30.17,ENE,57,3.0,12.0,64,0.00,,FEW250,0.00,VWS V14.01,2013-04-05 21:00:00,
2013-04-05 16:03:00,36.2,25.2,30.16,NNE,28,12.0,12.0,64,0.00,,BKN250,0.00,VWS V14.01,2013-04-05 21:03:00,
2013-04-05 16:05:00,36.1,24.7,30.17,NNE,30,9.0,12.0,63,0.00,,FEW250,0.00,VWS V14.01,2013-04-05 21:05:00,
2013-04-05 16:08:00,35.9,24.5,30.17,NE,35,6.0,11.0,63,0.00,,BKN250,0.00,VWS V14.01,2013-04-05 21:08:00,
2013-04-05 16:10:00,35.8,24.5,30.17,NE,52,6.0,11.0,63,0.00,,FEW250,0.00,VWS V14.01,2013-04-05 21:10:00,
2013-04-05 16:13:00,35.4,24.1,30.17,NE,42,3.0,11.0,63,0.00,,BKN250,0.00,VWS V14.01,2013-04-05 21:13:00,
2013-04-05 16:15:00,35.4,24.5,30.17,NE,53,6.0,11.0,64,0.00,,FEW250,0.00,VWS V14.01,2013-04-05 21:15:00,
2013-04-05 16:19:00,35.3,24.4,30.17,NE,46,5.0,10.0,64,0.00,,BKN250,0.00,VWS V14.01,2013-04-05 21:19:00,
2013-04-05 16:20:00,35.2,24.3,30.17,NE,49,4.0,10.0,64,0.00,,FEW250,0.00,VWS V14.01,2013-04-05 21:20:00,
2013-04-05 16:24:00,35.0,24.1,30.17,NE,55,4.0,11.0,64,0.00,,BKN250,0.00,VWS V14.01,2013-04-05 21:24:00,
2013-04-05 16:25:00,35.0,24.1,30.17,NE,55,4.0,11.0,64,0.00,,FEW250,0.00,VWS V14.01,2013-04-05 21:25:00,
2013-04-05 16:29:00,35.0,24.1,30.17,ENE,57,4.0,10.0,64,0.00,,BKN250,0.00,VWS V14.01,2013-04-05 21:29:00,
2013-04-05 16:30:00,35.0,24.1,30.17,ENE,57,4.0,10.0,64,0.00,,FEW250,0.00,VWS V14.01,2013-04-05 21:30:00,
2013-04-05 16:34:00,35.3,25.1,30.17,ENE,70,8.0,8.0,66,0.00,,BKN250,0.00,VWS V14.01,2013-04-05 21:34:00,
2013-04-05 16:35:00,35.3,25.1,30.17,ENE,70,8.0,8.0,66,0.00,,FEW250,0.00,VWS V14.01,2013-04-05 21:35:00,
2013-04-05 16:40:00,35.5,25.3,30.17,ENE,75,2.0,8.0,66,0.00,,BKN250,0.00,VWS V14.01,2013-04-05 21:40:00,
2013-04-05 16:45:00,35.3,24.7,30.17,NNE,29,8.0,11.0,65,0.00,,BKN250,0.00,VWS V14.01,2013-04-05 21:45:00,
2013-04-05 16:50:00,35.0,24.8,30.17,ENE,57,7.0,11.0,66,0.00,,BKN250,0.00,VWS V14.01,2013-04-05 21:50:00,
2013-04-05 16:55:00,34.6,24.4,30.17,NE,36,9.0,11.0,66,0.00,,BKN250,0.00,VWS V14.01,2013-04-05 21:55:00,
2013-04-05 17:00:00,34.6,24.4,30.17,NE,50,7.0,11.0,66,0.00,,FEW250,0.00,VWS V14.01,2013-04-05 22:00:00,
2013-04-05 17:01:00,34.6,24.8,30.17,NE,40,9.0,11.0,67,0.00,,BKN250,0.00,VWS V14.01,2013-04-05 22:01:00,
2013-04-05 17:05:00,34.6,25.5,30.17,ENE,58,8.0,12.0,69,0.00,,FEW250,0.00,VWS V14.01,2013-04-05 22:05:00,
2013-04-05 17:06:00,34.7,25.2,30.17,NE,41,2.0,10.0,68,0.00,,BKN250,0.00,VWS V14.01,2013-04-05 22:06:00,
2013-04-05 17:10:00,34.9,25.1,30.18,NNE,26,4.0,9.0,67,0.00,,FEW250,0.00,VWS V14.01,2013-04-05 22:10:00,
2013-04-05 17:11:00,35.0,25.2,30.18,NE,42,2.0,8.0,67,0.00,,BKN250,0.00,VWS V14.01,2013-04-05 22:11:00,
2013-04-05 17:15:00,35.1,25.6,30.18,NE,46,9.0,11.0,68,0.00,,FEW250,0.00,VWS V14.01,2013-04-05 22:15:00,
2013-04-05 17:16:00,34.8,24.6,30.17,NE,39,5.0,11.0,66,0.00,,BKN250,0.00,VWS V14.01,2013-04-05 22:16:00,
2013-04-05 17:20:00,34.6,24.8,30.17,NNE,18,5.0,13.0,67,0.00,,FEW250,0.00,VWS V14.01,2013-04-05 22:20:00,
2013-04-05 17:21:00,34.5,25.4,30.17,NE,37,6.0,13.0,69,0.00,,BKN250,0.00,VWS V14.01,2013-04-05 22:21:00,
2013-04-05 17:25:00,34.4,25.3,30.17,NNE,22,12.0,12.0,69,0.00,,FEW250,0.00,VWS V14.01,2013-04-05 22:25:00,
2013-04-05 17:27:00,34.4,25.3,30.17,NE,38,7.0,12.0,69,0.00,,BKN250,0.00,VWS V14.01,2013-04-05 22:27:00,
2013-04-05 17:30:00,34.4,25.3,30.17,NE,47,11.0,12.0,69,0.00,,FEW250,0.00,VWS V14.01,2013-04-05 22:30:00,
2013-04-05 17:32:00,34.3,24.9,30.17,NE,55,7.0,12.0,68,0.00,,BKN250,0.00,VWS V14.01,2013-04-05 22:32:00,
2013-04-05 17:35:00,34.3,25.5,30.17,North,360,6.0,12.0,70,0.00,,FEW250,0.00,VWS V14.01,2013-04-05 22:35:00,
2013-04-05 17:37:00,34.3,25.5,30.17,NNE,24,2.0,12.0,70,0.00,,BKN250,0.00,VWS V14.01,2013-04-05 22:37:00,
2013-04-05 17:40:00,34.4,25.3,30.17,North,355,4.0,12.0,69,0.00,,FEW250,0.00,VWS V14.01,2013-04-05 22:40:00,
2013-04-05 17:42:00,34.4,25.0,30.17,NNE,28,7.0,12.0,68,0.00,,BKN250,0.00,VWS V14.01,2013-04-05 22:42:00,
2013-04-05 17:45:00,34.3,24.9,30.17,ENE,68,2.0,11.0,68,0.00,,FEW250,0.00,VWS V14.01,2013-04-05 22:45:00,
2013-04-05 17:48:00,34.2,24.8,30.17,NE,36,10.0,11.0,68,0.00,,BKN250,0.00,VWS V14.01,2013-04-05 22:48:00,
2013-04-05 17:50:00,34.2,24.8,30.17,NNE,32,5.0,11.0,68,0.00,,FEW250,0.00,VWS V14.01,2013-04-05 22:50:00,
2013-04-05 17:53:00,34.2,25.1,30.17,ENE,57,7.0,12.0,69,0.00,,BKN250,0.00,VWS V14.01,2013-04-05 22:53:00,
2013-04-05 17:55:00,34.1,25.4,30.17,NE,46,8.0,12.0,70,0.00,,FEW250,0.00,VWS V14.01,2013-04-05 22:55:00,
2013-04-05 17:58:00,34.1,25.7,30.17,North,360,6.0,11.0,71,0.00,,BKN250,0.00,VWS V14.01,2013-04-05 22:58:00,
2013-04-05 18:00:00,34.2,25.8,30.17,North,5,2.0,11.0,71,0.00,,FEW250,0.00,VWS V14.01,2013-04-05 23:00:00,
2013-04-05 18:03:00,34.4,26.0,30.17,NE,55,5.0,9.0,71,0.00,,BKN250,0.00,VWS V14.01,2013-04-05 23:03:00,
2013-04-05 18:05:00,34.3,25.9,30.17,NE,48,4.0,9.0,71,0.00,,FEW250,0.00,VWS V14.01,2013-04-05 23:05:00,
2013-04-05 18:09:00,34.3,25.5,30.17,NNE,30,7.0,12.0,70,0.00,,BKN250,0.00,VWS V14.01,2013-04-05 23:09:00,
2013-04-05 18:10:00,34.3,25.9,30.17,NE,35,6.0,12.0,71,0.00,,FEW250,0.00,VWS V14.01,2013-04-05 23:10:00,
2013-04-05 18:14:00,34.1,25.7,30.18,NE,36,8.0,12.0,71,0.00,,BKN250,0.00,VWS V14.01,2013-04-05 23:14:00,
2013-04-05 18:15:00,34.1,25.7,30.18,NE,36,8.0,12.0,71,0.00,,FEW250,0.00,VWS V14.01,2013-04-05 23:15:00,
2013-04-05 18:19:00,34.1,25.7,30.18,ENE,73,5.0,10.0,71,0.00,,BKN250,0.00,VWS V14.01,2013-04-05 23:19:00,
2013-04-05 18:20:00,34.1,25.7,30.18,NNE,19,3.0,10.0,71,0.00,,FEW250,0.00,VWS V14.01,2013-04-05 23:20:00,
2013-04-05 18:24:00,34.2,25.1,30.18,NE,46,3.0,10.0,69,0.00,,BKN250,0.00,VWS V14.01,2013-04-05 23:24:00,
2013-04-05 18:25:00,34.2,25.5,30.18,NE,55,3.0,10.0,70,0.00,,FEW250,0.00,VWS V14.01,2013-04-05 23:25:00,
2013-04-05 18:30:00,34.1,25.7,30.18,NE,42,5.0,10.0,71,0.00,,BKN250,0.00,VWS V14.01,2013-04-05 23:30:00,
2013-04-05 18:35:00,34.1,25.7,30.17,NNE,26,3.0,11.0,71,0.00,,BKN250,0.00,VWS V14.01,2013-04-05 23:35:00,
2013-04-05 18:40:00,34.2,24.8,30.17,NE,55,4.0,10.0,68,0.00,,BKN250,0.00,VWS V14.01,2013-04-05 23:40:00,
2013-04-05 18:45:00,34.2,25.5,30.18,NE,49,4.0,8.0,70,0.00,,BKN250,0.00,VWS V14.01,2013-04-05 23:45:00,
2013-04-05 18:50:00,34.1,24.7,30.17,ENE,59,7.0,9.0,68,0.00,,BKN250,0.00,VWS V14.01,2013-04-05 23:50:00,
2013-04-05 18:55:00,34.1,24.7,30.17,NE,44,7.0,9.0,68,0.00,,BKN250,0.00,VWS V14.01,2013-04-05 23:55:00,
2013-04-05 19:00:00,34.2,24.8,30.17,NE,37,4.0,7.0,68,0.00,,FEW250,0.00,VWS V14.01,2013-04-06 00:00:00,
2013-04-05 19:01:00,34.2,25.1,30.17,NE,55,6.0,8.0,69,0.00,,BKN250,0.00,VWS V14.01,2013-04-06 00:01:00,
2013-04-05 19:05:00,34.2,25.5,30.17,East,95,7.0,9.0,70,0.00,,FEW250,0.00,VWS V14.01,2013-04-06 00:05:00,
2013-04-05 19:06:00,34.2,25.5,30.17,NE,52,3.0,10.0,70,0.00,,BKN250,0.00,VWS V14.01,2013-04-06 00:06:00,
2013-04-05 19:10:00,34.3,25.9,30.17,NE,53,5.0,9.0,71,0.00,,FEW250,0.00,VWS V14.01,2013-04-06 00:10:00,
2013-04-05 19:12:00,34.3,26.2,30.17,NNE,15,6.0,8.0,72,0.00,,BKN250,0.00,VWS V14.01,2013-04-06 00:12:00,
2013-04-05 19:15:00,34.3,25.9,30.17,East,91,3.0,8.0,71,0.00,,FEW250,0.00,VWS V14.01,2013-04-06 00:15:00,
2013-04-05 19:17:00,34.3,26.2,30.16,ENE,65,2.0,8.0,72,0.00,,BKN250,0.00,VWS V14.01,2013-04-06 00:17:00,
2013-04-05 19:20:00,34.3,26.2,30.16,NE,36,7.0,11.0,72,0.00,,FEW250,0.00,VWS V14.01,2013-04-06 00:20:00,
2013-04-05 19:23:00,34.3,26.2,30.16,NE,48,2.0,11.0,72,0.00,,BKN250,0.00,VWS V14.01,2013-04-06 00:23:00,
2013-04-05 19:25:00,34.3,26.9,30.16,ENE,57,3.0,10.0,74,0.00,,FEW250,0.00,VWS V14.01,2013-04-06 00:25:00,
2013-04-05 19:28:00,34.1,26.4,30.16,NE,48,6.0,10.0,73,0.00,,BKN250,0.00,VWS V14.01,2013-04-06 00:28:00,
2013-04-05 19:30:00,34.1,26.4,30.16,NE,38,6.0,10.0,73,0.00,,FEW250,0.00,VWS V14.01,2013-04-06 00:30:00,
2013-04-05 19:33:00,34.1,26.0,30.16,NE,52,5.0,9.0,72,0.00,,BKN250,0.00,VWS V14.01,2013-04-06 00:33:00,
2013-04-05 19:35:00,34.1,26.0,30.16,ENE,64,5.0,9.0,72,0.00,,FEW250,0.00,VWS V14.01,2013-04-06 00:35:00,
2013-04-05 19:38:00,34.1,26.4,30.16,NNE,30,3.0,11.0,73,0.00,,BKN250,0.00,VWS V14.01,2013-04-06 00:38:00,
2013-04-05 19:40:00,34.1,26.4,30.16,NE,41,7.0,11.0,73,0.00,,FEW250,0.00,VWS V14.01,2013-04-06 00:40:00,
2013-04-05 19:44:00,34.2,26.8,30.16,NE,40,3.0,9.0,74,0.00,,BKN250,0.00,VWS V14.01,2013-04-06 00:44:00,
2013-04-05 19:45:00,34.1,26.7,30.16,NE,35,3.0,9.0,74,0.00,,FEW250,0.00,VWS V14.01,2013-04-06 00:45:00,
2013-04-05 19:49:00,34.3,27.2,30.16,NE,51,5.0,10.0,75,0.00,,BKN250,0.00,VWS V14.01,2013-04-06 00:49:00,
2013-04-05 19:50:00,34.3,27.2,30.16,NE,50,4.0,10.0,75,0.00,,FEW250,0.00,VWS V14.01,2013-04-06 00:50:00,
2013-04-05 19:54:00,34.3,26.9,30.16,ENE,66,7.0,9.0,74,0.00,,BKN250,0.00,VWS V14.01,2013-04-06 00:54:00,
2013-04-05 19:55:00,34.3,26.9,30.16,ENE,66,7.0,9.0,74,0.00,,FEW250,0.00,VWS V14.01,2013-04-06 00:55:00,
2013-04-05 19:59:00,34.4,26.7,30.16,ENE,71,7.0,10.0,73,0.00,,BKN250,0.00,VWS V14.01,2013-04-06 00:59:00,
2013-04-05 20:00:00,34.4,26.7,30.16,ENE,64,4.0,10.0,73,0.00,,FEW250,0.00,VWS V14.01,2013-04-06 01:00:00,
2013-04-05 20:05:00,34.4,26.3,30.17,ENE,61,2.0,7.0,72,0.00,,OVC150,0.00,VWS V14.01,2013-04-06 01:05:00,
2013-04-05 20:10:00,34.5,25.7,30.16,ENE,65,3.0,9.0,70,0.00,,OVC150,0.00,VWS V14.01,2013-04-06 01:10:00,
2013-04-05 20:15:00,34.6,24.4,30.16,NE,41,2.0,11.0,66,0.00,,OVC150,0.00,VWS V14.01,2013-04-06 01:15:00,
2013-04-05 20:20:00,34.8,25.0,30.16,ENE,64,3.0,8.0,67,0.00,,OVC150,0.00,VWS V14.01,2013-04-06 01:20:00,
2013-04-05 20:25:00,34.9,24.0,30.16,ENE,75,5.0,11.0,64,0.00,,OVC150,0.00,VWS V14.01,2013-04-06 01:25:00,
2013-04-05 20:30:00,35.1,22.6,30.16,ENE,73,8.0,11.0,60,0.00,,OVC150,0.00,VWS V14.01,2013-04-06 01:30:00,
2013-04-05 20:35:00,35.1,22.2,30.16,NE,50,6.0,11.0,59,0.00,,FEW250,0.00,VWS V14.01,2013-04-06 01:35:00,
2013-04-05 20:36:00,35.2,22.3,30.16,NE,35,4.0,11.0,59,0.00,,OVC150,0.00,VWS V14.01,2013-04-06 01:36:00,
2013-04-05 20:40:00,35.2,23.1,30.16,ENE,66,5.0,10.0,61,0.00,,FEW250,0.00,VWS V14.01,2013-04-06 01:40:00,
2013-04-05 20:41:00,35.1,23.0,30.16,East,90,5.0,11.0,61,0.00,,OVC150,0.00,VWS V14.01,2013-04-06 01:41:00,
2013-04-05 20:45:00,35.1,22.6,30.16,East,95,11.0,13.0,60,0.00,,FEW250,0.00,VWS V14.01,2013-04-06 01:45:00,
2013-04-05 20:46:00,35.1,22.2,30.16,ENE,71,14.0,14.0,59,0.00,,OVC150,0.00,VWS V14.01,2013-04-06 01:46:00,
2013-04-05 20:50:00,35.2,22.7,30.16,ENE,59,7.0,14.0,60,0.00,,FEW250,0.00,VWS V14.01,2013-04-06 01:50:00,
2013-04-05 20:51:00,35.2,23.5,30.16,NNE,27,4.0,12.0,62,0.00,,OVC150,0.00,VWS V14.01,2013-04-06 01:51:00,
2013-04-05 20:55:00,35.1,23.4,30.16,NE,56,8.0,10.0,62,0.00,,FEW250,0.00,VWS V14.01,2013-04-06 01:55:00,
2013-04-05 20:57:00,35.1,23.8,30.16,ENE,69,12.0,13.0,63,0.00,,OVC150,0.00,VWS V14.01,2013-04-06 01:57:00,
2013-04-05 21:00:00,35.2,23.5,30.16,NE,56,6.0,12.0,62,0.00,,FEW250,0.00,VWS V14.01,2013-04-06 02:00:00,
2013-04-05 21:02:00,35.1,24.2,30.16,NNE,18,7.0,13.0,64,0.00,,OVC100,0.00,VWS V14.01,2013-04-06 02:02:00,
2013-04-05 21:05:00,35.1,24.5,30.16,NE,49,3.0,14.0,65,0.00,,FEW250,0.00,VWS V14.01,2013-04-06 02:05:00,
2013-04-05 21:07:00,35.1,23.4,30.16,ENE,63,8.0,14.0,62,0.00,,OVC100,0.00,VWS V14.01,2013-04-06 02:07:00,
2013-04-05 21:10:00,35.1,23.4,30.16,NE,41,5.0,13.0,62,0.00,,FEW250,0.00,VWS V14.01,2013-04-06 02:10:00,
2013-04-05 21:13:00,35.2,24.3,30.16,ENE,78,7.0,16.0,64,0.00,,OVC100,0.00,VWS V14.01,2013-04-06 02:13:00,
2013-04-05 21:15:00,35.2,24.3,30.16,NE,52,2.0,16.0,64,0.00,,FEW250,0.00,VWS V14.01,2013-04-06 02:15:00,
2013-04-05 21:18:00,35.2,24.6,30.16,ENE,76,4.0,15.0,65,0.00,,OVC100,0.00,VWS V14.01,2013-04-06 02:18:00,
2013-04-05 21:20:00,35.2,24.6,30.16,NE,49,6.0,15.0,65,0.00,,FEW250,0.00,VWS V14.01,2013-04-06 02:20:00,
2013-04-05 21:23:00,35.2,24.3,30.15,ENE,74,7.0,13.0,64,0.00,,OVC100,0.00,VWS V14.01,2013-04-06 02:23:00,
2013-04-05 21:25:00,35.2,23.9,30.15,ENE,78,8.0,13.0,63,0.00,,FEW250,0.00,VWS V14.01,2013-04-06 02:25:00,
2013-04-05 21:28:00,35.3,24.0,30.15,NE,53,6.0,14.0,63,0.00,,OVC100,0.00,VWS V14.01,2013-04-06 02:28:00,
2013-04-05 21:30:00,35.3,24.0,30.15,ENE,69,12.0,14.0,63,0.00,,FEW250,0.00,VWS V14.01,2013-04-06 02:30:00,
2013-04-05 21:33:00,35.3,23.6,30.15,ENE,59,10.0,16.0,62,0.00,,OVC100,0.00,VWS V14.01,2013-04-06 02:33:00,
2013-04-05 21:35:00,35.3,24.0,30.15,ENE,63,3.0,16.0,63,0.00,,FEW250,0.00,VWS V14.01,2013-04-06 02:35:00,
2013-04-05 21:39:00,35.4,23.7,30.15,NE,41,13.0,13.0,62,0.00,,OVC100,0.00,VWS V14.01,2013-04-06 02:39:00,
2013-04-05 21:40:00,35.4,23.7,30.15,NE,51,7.0,14.0,62,0.00,,FEW250,0.00,VWS V14.01,2013-04-06 02:40:00,
2013-04-05 21:44:00,35.4,23.7,30.15,NNE,30,2.0,11.0,62,0.00,,OVC100,0.00,VWS V14.01,2013-04-06 02:44:00,
2013-04-05 21:45:00,35.4,24.1,30.15,ENE,65,3.0,11.0,63,0.00,,FEW250,0.00,VWS V14.01,2013-04-06 02:45:00,
2013-04-05 21:49:00,35.5,23.4,30.15,East,81,14.0,15.0,61,0.00,,OVC100,0.00,VWS V14.01,2013-04-06 02:49:00,
2013-04-05 21:50:00,35.5,23.8,30.15,ENE,63,9.0,15.0,62,0.00,,FEW250,0.00,VWS V14.01,2013-04-06 02:50:00,
2013-04-05 21:54:00,35.4,23.7,30.15,ENE,71,5.0,16.0,62,0.00,,OVC100,0.00,VWS V14.01,2013-04-06 02:54:00,
2013-04-05 21:55:00,35.4,23.3,30.15,ENE,65,9.0,16.0,61,0.00,,FEW250,0.00,VWS V14.01,2013-04-06 02:55:00,
2013-04-05 21:59:00,35.5,24.2,30.15,ENE,76,9.0,15.0,63,0.00,,OVC100,0.00,VWS V14.01,2013-04-06 02:59:00,
2013-04-05 22:00:00,35.5,23.8,30.15,NE,51,6.0,15.0,62,0.00,,FEW250,0.00,VWS V14.01,2013-04-06 03:00:00,
2013-04-05 22:05:00,35.5,23.8,30.14,NE,55,9.0,15.0,62,0.00,,OVC085,0.00,VWS V14.01,2013-04-06 03:05:00,
2013-04-05 22:10:00,35.5,23.8,30.14,NE,40,8.0,15.0,62,0.00,,OVC085,0.00,VWS V14.01,2013-04-06 03:10:00,
2013-04-05 22:15:00,35.5,23.8,30.14,ENE,57,7.0,14.0,62,0.00,,OVC085,0.00,VWS V14.01,2013-04-06 03:15:00,
2013-04-05 22:20:00,35.5,23.8,30.14,NE,47,9.0,14.0,62,0.00,,FEW250,0.00,VWS V14.01,2013-04-06 03:20:00,
2013-04-05 22:21:00,35.5,24.5,30.14,East,88,8.0,14.0,64,0.00,,OVC085,0.00,VWS V14.01,2013-04-06 03:21:00,
2013-04-05 22:25:00,35.5,24.5,30.14,ENE,67,5.0,12.0,64,0.00,,FEW250,0.00,VWS V14.01,2013-04-06 03:25:00,
2013-04-05 22:26:00,35.5,24.5,30.14,East,79,7.0,13.0,64,0.00,,OVC085,0.00,VWS V14.01,2013-04-06 03:26:00,
2013-04-05 22:30:00,35.5,24.5,30.14,ENE,77,7.0,13.0,64,0.00,,FEW250,0.00,VWS V14.01,2013-04-06 03:30:00,
2013-04-05 22:31:00,35.5,23.8,30.14,East,86,8.0,14.0,62,0.00,,OVC085,0.00,VWS V14.01,2013-04-06 03:31:00,
2013-04-05 22:35:00,35.5,24.2,30.14,East,80,10.0,15.0,63,0.00,,FEW250,0.00,VWS V14.01,2013-04-06 03:35:00,
2013-04-05 22:36:00,35.4,23.3,30.13,NE,53,4.0,15.0,61,0.00,,OVC085,0.00,VWS V14.01,2013-04-06 03:36:00,
2013-04-05 22:40:00,35.4,24.1,30.14,East,97,3.0,13.0,63,0.00,,FEW250,0.00,VWS V14.01,2013-04-06 03:40:00,
2013-04-05 22:41:00,35.4,24.5,30.14,ENE,66,5.0,12.0,64,0.00,,OVC085,0.00,VWS V14.01,2013-04-06 03:41:00,
2013-04-05 22:45:00,35.4,24.5,30.14,ENE,63,5.0,12.0,64,0.00,,FEW250,0.00,VWS V14.01,2013-04-06 03:45:00,
2013-04-05 22:47:00,35.4,24.5,30.13,NNE,19,5.0,11.0,64,0.00,,OVC085,0.00,VWS V14.01,2013-04-06 03:47:00,
2013-04-05 22:50:00,35.5,24.2,30.14,NE,42,3.0,11.0,63,0.00,,FEW250,0.00,VWS V14.01,2013-04-06 03:50:00,
2013-04-05 22:52:00,35.5,23.8,30.14,ENE,58,5.0,11.0,62,0.00,,OVC085,0.00,VWS V14.01,2013-04-06 03:52:00,
2013-04-05 22:55:00,35.5,24.2,30.14,NNE,12,2.0,9.0,63,0.00,,FEW250,0.00,VWS V14.01,2013-04-06 03:55:00,
2013-04-05 22:57:00,35.5,24.2,30.14,NNE,15,11.0,11.0,63,0.00,,OVC085,0.00,VWS V14.01,2013-04-06 03:57:00,
2013-04-05 23:00:00,35.5,24.2,30.14,East,80,9.0,13.0,63,0.00,,OVC120,0.00,VWS V14.01,2013-04-06 04:00:00,
2013-04-05 23:02:00,35.5,24.2,30.14,East,101,5.0,13.0,63,0.00,,OVC120,0.00,VWS V14.01,2013-04-06 04:02:00,
2013-04-05 23:05:00,35.5,24.2,30.14,NNE,22,5.0,13.0,63,0.00,,FEW250,0.00,VWS V14.01,2013-04-06 04:05:00,
2013-04-05 23:07:00,35.5,24.5,30.14,ENE,71,8.0,12.0,64,0.00,,OVC120,0.00,VWS V14.01,2013-04-06 04:07:00,
2013-04-05 23:10:00,35.5,24.5,30.14,North,5,2.0,10.0,64,0.00,,OVC120,0.00,VWS V14.01,2013-04-06 04:10:00,
2013-04-05 23:15:00,35.4,25.2,30.14,NNE,31,5.0,11.0,66,0.00,,OVC120,0.00,VWS V14.01,2013-04-06 04:15:00,
2013-04-05 23:20:00,35.4,24.1,30.14,NE,34,8.0,13.0,63,0.00,,FEW250,0.00,VWS V14.01,2013-04-06 04:20:00,
2013-04-05 23:21:00,35.4,24.1,30.14,NE,38,2.0,13.0,63,0.00,,OVC120,0.00,VWS V14.01,2013-04-06 04:21:00,
2013-04-05 23:25:00,35.4,24.5,30.14,ENE,59,1.0,9.0,64,0.00,,FEW250,0.00,VWS V14.01,2013-04-06 04:25:00,
2013-04-05 23:26:00,35.4,24.5,30.15,NNE,25,4.0,11.0,64,0.00,,OVC120,0.00,VWS V14.01,2013-04-06 04:26:00,
2013-04-05 23:30:00,35.4,25.2,30.15,North,9,3.0,11.0,66,0.00,,FEW250,0.00,VWS V14.01,2013-04-06 04:30:00,
2013-04-05 23:31:00,35.4,25.5,30.15,East,92,7.0,8.0,67,0.00,,OVC120,0.00,VWS V14.01,2013-04-06 04:31:00,
2013-04-05 23:35:00,35.4,25.9,30.15,NE,49,2.0,9.0,68,0.00,,FEW250,0.00,VWS V14.01,2013-04-06 04:35:00,
2013-04-05 23:37:00,35.3,25.8,30.15,ENE,71,5.0,10.0,68,0.00,,OVC120,0.00,VWS V14.01,2013-04-06 04:37:00,
2013-04-05 23:40:00,35.3,25.5,30.14,NE,56,2.0,10.0,67,0.00,,FEW250,0.00,VWS V14.01,2013-04-06 04:40:00,
2013-04-05 23:42:00,35.3,25.5,30.15,NNE,24,2.0,8.0,67,0.00,,OVC120,0.00,VWS V14.01,2013-04-06 04:42:00,
2013-04-05 23:45:00,35.3,25.5,30.15,ENE,59,5.0,8.0,67,0.00,,FEW250,0.00,VWS V14.01,2013-04-06 04:45:00,
2013-04-05 23:47:00,35.3,25.5,30.15,ENE,57,3.0,9.0,67,0.00,,OVC120,0.00,VWS V14.01,2013-04-06 04:47:00,
2013-04-05 23:50:00,35.3,25.8,30.15,NE,41,1.0,9.0,68,0.00,,FEW250,0.00,VWS V14.01,2013-04-06 04:50:00,
2013-04-05 23:53:00,35.3,25.5,30.15,East,82,5.0,8.0,67,0.00,,OVC120,0.00,VWS V14.01,2013-04-06 04:53:00,
2013-04-05 23:55:00,35.3,25.5,30.15,ENE,71,4.0,8.0,67,0.00,,FEW250,0.00,VWS V14.01,2013-04-06 04:55:00,
2013-04-05 23:58:00,35.3,25.8,30.14,ENE,71,5.0,7.0,68,0.00,,OVC120,0.00,VWS V14.01,2013-04-06 04:58:00,